Regional Weather Roundup
Issued by NWS

Home | Current Version | Previous Version | Text Only | Print | Product List | Glossary On
Versions: 1 2 3 4 5 6 7 8 9 10 11 12 13 14 15 16 17 18 19 20 21 22 23 24 25 26 27 28 29 30 31 32 33 34 35 36 37 38 39 40 41 42 43 44 45 46 47 48 49 50
000
ASUS44 KLIX 311311
RWRLA
LOUISIANA WEATHER ROUNDUP
NATIONAL WEATHER SERVICE NEW ORLEANS LA
800 AM CDT FRI JUL 31 2015

NOTE: "FAIR" INDICATES FEW OR NO CLOUDS BELOW 12,000 FEET WITH NO
      SIGNIFICANT WEATHER AND/OR OBSTRUCTIONS TO VISIBILITY.
      SKY/WX - SKY CONDITION AND SIGNIFICANT WEATHER.
      TMP - AIR TEMPERATURE.    DP   - DEWPOINT TEMPERATURE.
      RH  - RELATIVE HUMIDITY.  PRES - PRESSURE.
      HX  - HEAT INDEX.         WCI  - WIND CHILL INDEX.

*  THESE STATIONS ARE NOT NWS OR FAA STATIONS AND ARE NOT UNDER
   NWS QUALITY CONTROL.

LAZ040-048-061>063-065-066-069-311400-
SOUTHEAST LOUISIANA

CITY           SKY/WX    TMP DP  RH WIND       PRES   REMARKS
N.O. AUDUBON     N/A     84  76  75 MISG        N/A
N.O. INTL ARPT PTSUNNY   83  71  67 NE10      29.96R
N.O. LAKEFRONT MOSUNNY   81  71  71 NE13      29.96R
N.O. DOWNTOWN* FAIR      82  72  69 N6        29.97R
RESERVE*       FAIR      81  74  81 NE5       29.97S
SLIDELL        MOSUNNY   79  74  84 N7        29.96R
BATON ROUGE    SUNNY     77  71  82 NE6       29.99R
BOOTHVILLE     MOSUNNY   85  76  74 N8        29.94R
BELLE CHASSE   PTSUNNY   82  73  74 N6        29.95R
BOGALUSA*        N/A     77  70  79 N7        29.99R
GALLIANO*      NOT AVBL
NEW ROADS*     FAIR     N/A N/A N/A N6        30.00S
GONZALES*      FAIR      77  74  90 N9        29.97R
HAMMOND*       MOSUNNY   79  68  69 N7        29.99R
HOUMA*         SUNNY     79  75  89 N6        29.96S
PORT FOURCHON* PTSUNNY   82  77  83 N9        29.96R

$$

LAZ041-044-053-054-311400-
SOUTHWEST LOUISIANA

CITY           SKY/WX    TMP DP  RH WIND       PRES   REMARKS
LAKE CHARLES   MOSUNNY   80  73  79 NE10      30.00S
LAFAYETTE      MOSUNNY   80  75  84 N8        30.00R
PATTERSON      SUNNY     79  73  83 N8        29.98S
SALT POINT       N/A     79  77  94 N5        29.96R
NEW IBERIA     MOSUNNY   80  76  87 N9        29.99R
CHENAULT AIRPK SUNNY     75  73  94 N8        30.01S

$$

LAZ027-028-311400-
CENTRAL LOUISIANA

CITY           SKY/WX    TMP DP  RH WIND       PRES   REMARKS
FORT POLK      MOSUNNY   76  69  79 VRB7      30.02S
ALEXANDRIA INT MOSUNNY   75  69  81 N6        30.02S
ALEXANDRIA     MOSUNNY   78  70  76 VRB5      30.03S

$$

LAZ001-002-311400-
NORTHWEST LOUISIANA

CITY           SKY/WX    TMP DP  RH WIND       PRES   REMARKS
SHREVEPORT     MOSUNNY   79  65  62 NE8       30.08R
BARKSDALE AFB  MOSUNNY   74  66  76 NE5       30.07S
DTN SHREVEPORT MOSUNNY   75  65  70 NE7       30.08R

$$

LAZ014-016-311400-
NORTHEAST LOUISIANA

CITY           SKY/WX    TMP DP  RH WIND       PRES   REMARKS
MONROE         SUNNY     75  67  76 NE6       30.07R
TALLULAH       SUNNY     78  66  66 N10       30.04S

$$



USA.gov is the U.S. government's official web portal to all federal, state and local government web resources and services.